Wind_Speed
14 14 14 14 14 14 13 12 12 11 10 10 10 10 10 10 9 9 8 8 7 7 7 7 6 5 4 4 4 4 4 3 3 3 3 3 4 3 2 2 2 2 2
16 16 16 16 15 15 14 13 13 12 12 11 11 11 10 10 10 10 9 9 9 8 8 8 7 6 6 5 5 5 5 4 4 4 3 4 4 3 3 3 2 2 2
17 17 17 17 16 16 16 15 14 13 13 12 13 12 12 11 11 11 11 11 10 9 8 8 8 7 7 7 6 6 5 5 5 4 4 4 4 4 3 3 3 3 2
18 18 18 17 17 17 17 16 16 15 15 14 14 14 13 13 12 12 12 12 12 11 10 9 9 8 8 8 8 7 7 6 6 6 5 5 5 4 4 3 3 4 3
20 20 19 19 19 18 18 18 17 17 17 17 16 16 16 15 14 14 13 13 13 13 12 11 10 10 9 9 9 9 8 8 8 7 7 6 6 6 5 4 4 4 3
21 21 21 21 21 20 20 19 19 19 18 18 18 18 18 17 17 16 15 15 15 14 14 13 13 12 11 11 11 10 10 10 9 9 8 8 7 7 6 6 4 5 4
23 23 23 23 22 22 22 22 21 21 21 20 20 20 20 19 19 19 18 17 16 16 16 15 14 14 13 12 12 12 12 12 11 11 10 10 9 9 8 7 6 6 5
25 25 25 25 24 24 23 23 23 23 22 22 22 22 22 21 21 21 20 20 19 18 18 17 17 16 15 15 14 13 13 13 12 12 12 11 11 10 9 9 8 8 7
27 27 27 27 26 25 25 25 25 25 24 24 24 24 24 24 23 23 23 22 22 21 21 20 19 19 18 17 16 15 15 15 14 14 13 13 12 11 11 10 10 10 9
28 28 28 28 27 27 27 27 27 26 26 26 26 26 26 26 25 25 25 25 24 24 23 23 21 21 20 19 19 17 17 17 16 16 15 14 14 13 13 12 12 12 11
30 30 30 30 30 29 29 29 29 28 28 28 28 28 28 28 28 27 27 27 26 26 26 25 25 23 23 22 21 20 19 19 19 18 17 16 16 16 15 15 15 14 13
31 31 32 32 32 31 31 31 31 31 30 30 30 30 30 30 29 29 29 29 28 28 28 28 28 27 25 25 24 23 22 21 21 20 20 19 18 18 18 17 17 16 15
33 33 33 33 33 33 33 33 33 33 33 33 33 32 32 32 31 31 31 31 31 30 30 30 30 29 28 27 26 26 25 24 23 23 22 22 21 21 20 19 18 18 17
34 34 34 34 35 35 34 35 35 35 35 35 34 35 34 34 33 33 33 33 33 32 32 33 33 32 31 30 29 29 28 28 27 26 25 25 24 23 22 21 21 20 20
36 36 36 36 36 36 36 36 36 36 36 36 37 37 37 36 35 34 35 35 34 34 34 34 35 34 34 33 32 31 31 31 30 29 28 28 27 26 25 24 23 23 22
38 38 38 38 37 38 38 38 38 38 38 38 38 39 39 38 38 37 37 37 37 36 36 36 36 36 36 36 34 34 33 33 33 32 31 31 30 28 27 26 26 25 25
39 39 39 40 39 39 40 40 40 40 40 40 40 41 41 41 40 40 40 40 39 39 39 38 38 38 38 38 37 37 36 35 35 35 34 33 32 31 30 29 28 28 27
40 40 40 41 40 41 41 41 42 42 43 43 43 43 43 43 44 43 42 42 42 42 41 41 41 41 41 40 40 40 40 39 38 37 36 35 34 34 33 32 32 31 30
41 41 41 42 42 42 43 43 43 44 45 45 46 46 46 46 46 46 45 44 44 44 44 44 44 44 44 43 43 43 43 42 41 40 39 38 37 36 36 35 34 34 33
41 42 42 43 44 44 45 46 46 46 46 46 47 48 49 49 48 48 48 47 47 47 47 46 46 46 46 46 46 45 45 45 44 43 42 41 40 39 38 38 37 36 35
41 42 43 44 45 46 46 46 47 47 47 48 48 49 50 50 50 50 49 49 49 49 49 49 49 48 48 48 48 48 47 47 46 46 45 44 43 42 41 40 40 39 37
41 42 43 45 46 47 47 47 47 48 49 50 50 49 50 52 52 52 52 50 50 50 50 51 51 51 50 50 49 49 48 49 48 48 47 45 45 45 44 43 42 42 41
41 42 43 45 46 47 47 48 48 48 49 50 51 51 51 52 53 54 54 54 53 52 52 53 53 53 52 52 51 51 51 50 50 50 48 47 46 46 46 45 44 44 43
41 42 43 45 46 47 47 48 48 49 49 50 51 52 52 52 53 54 54 54 54 54 53 53 53 54 54 53 53 52 52 51 51 51 50 49 48 47 47 47 46 45 45
41 42 43 44 45 46 47 48 48 49 50 51 51 52 52 52 53 53 53 54 54 55 55 54 54 54 54 54 53 52 52 53 52 52 51 51 50 50 49 49 48 47 46
41 42 43 43 44 45 46 47 47 48 49 50 51 51 52 52 53 53 54 54 54 54 54 53 53 54 54 55 54 53 53 53 53 53 53 52 52 51 51 50 49 49 48
Wind_Direction
233 233 233 233 231 230 229 227 224 223 222 221 216 212 212 210 208 204 200 200 199 200 199 201 202 196 192 188 186 186 185 181 176 173 172 173 174 172 167 155 144 132 117
235 233 233 232 231 230 230 231 231 229 227 225 221 218 218 217 216 212 210 207 205 206 209 209 210 207 207 204 200 200 200 198 190 186 181 179 179 181 181 175 167 148 134
237 235 235 234 232 232 232 232 231 232 230 230 229 226 223 222 220 219 217 214 213 214 214 216 215 216 217 214 210 208 208 208 202 201 195 190 190 186 183 183 184 172 168
239 238 237 236 234 234 233 233 233 233 233 232 232 231 230 228 228 225 223 222 221 221 222 224 223 222 222 220 218 217 215 213 209 207 203 198 199 195 197 202 202 194 194
241 239 238 236 235 235 235 235 235 236 237 235 235 235 234 233 234 233 230 228 227 227 227 229 227 227 228 227 225 225 222 221 217 213 209 208 209 208 210 210 211 208 211
241 240 239 238 238 237 237 238 239 239 240 239 236 236 237 237 236 236 235 233 233 233 232 233 233 233 232 230 229 229 228 226 223 220 216 215 218 220 222 223 223 222 226
243 242 240 239 240 239 240 241 241 242 244 242 241 239 238 239 239 239 237 237 236 236 236 235 235 235 235 233 233 233 231 230 228 226 223 223 224 225 227 230 231 233 233
243 242 242 241 241 241 241 242 242 244 246 246 246 244 242 240 240 240 240 239 239 238 239 237 237 237 236 236 235 234 232 232 231 229 228 227 226 227 229 232 233 236 239
243 242 242 242 242 243 243 243 244 245 247 248 248 246 244 242 242 241 241 241 241 240 241 240 239 239 238 236 236 236 233 233 232 232 232 232 231 230 231 234 235 240 244
243 243 243 243 243 244 244 244 245 246 247 248 248 247 245 244 244 244 243 243 243 242 242 242 241 241 240 239 237 237 235 235 235 235 235 235 236 235 234 236 239 243 247
245 245 244 244 244 246 246 246 246 247 248 248 248 248 247 246 245 244 244 243 243 243 243 243 243 243 242 241 241 239 238 238 237 237 237 238 239 240 240 241 242 246 250
247 247 247 246 246 247 248 248 248 248 248 248 248 248 248 247 246 245 245 245 244 243 244 244 244 244 243 242 242 241 240 239 239 240 240 240 242 244 245 244 244 247 250
248 248 248 248 248 249 250 249 249 249 249 249 249 249 248 247 246 245 246 246 245 245 244 244 244 245 245 243 243 242 243 241 240 241 243 243 244 245 246 247 247 249 252
248 248 249 249 250 250 251 250 250 251 250 249 248 249 249 248 247 247 246 246 246 246 247 246 245 245 245 245 244 244 244 244 244 243 244 245 245 246 247 248 250 250 253
249 249 250 251 252 252 252 251 251 251 251 250 249 248 249 248 247 247 247 246 247 247 247 248 246 245 245 245 245 245 245 245 246 245 245 245 246 247 247 248 250 252 253
250 251 252 253 254 255 255 254 253 252 252 251 250 249 249 248 248 248 248 248 247 248 248 248 248 247 246 246 246 246 247 247 247 247 245 245 247 248 248 248 250 252 253
251 252 253 254 255 256 256 255 254 253 252 252 251 250 250 249 249 249 249 249 249 249 248 248 248 248 248 247 246 247 247 248 248 247 246 246 247 248 249 249 251 252 253
252 252 253 254 255 256 257 256 256 255 254 253 253 252 251 250 250 250 249 249 249 248 248 248 249 249 248 248 247 247 247 247 247 247 247 247 248 248 249 250 252 253 253
252 252 253 255 255 256 256 257 257 256 256 254 254 253 252 251 252 251 251 250 250 250 249 249 249 249 248 248 248 247 247 247 247 247 247 247 247 248 249 250 252 253 253
254 254 254 255 255 255 256 257 258 258 257 256 255 254 253 253 252 252 252 252 251 251 250 250 250 250 249 249 248 247 247 246 246 247 247 248 248 248 249 250 250 251 252
255 255 255 256 256 256 256 257 257 258 257 257 256 254 254 254 253 254 254 253 253 252 251 250 250 250 250 250 249 248 247 247 247 246 247 247 248 248 249 250 250 251 252
256 256 257 256 256 257 257 257 257 257 257 257 257 257 256 255 254 255 254 254 254 253 252 251 250 250 249 249 249 249 248 248 246 246 246 247 248 248 249 249 251 251 251
257 258 258 257 257 257 257 257 258 258 258 258 257 257 257 256 255 255 255 254 253 254 253 251 250 249 249 249 249 249 248 247 246 246 246 246 247 249 249 249 250 251 252
258 259 259 259 258 258 258 258 258 258 259 260 259 258 257 257 255 255 255 255 254 254 253 252 250 249 248 248 249 248 248 248 246 245 246 246 247 249 249 249 250 251 251
259 259 259 259 259 259 259 259 259 259 260 260 259 259 258 257 255 255 255 255 254 253 252 251 251 249 248 247 247 246 247 247 246 246 246 247 248 248 249 250 250 250 251
261 260 259 260 260 261 261 261 261 261 261 260 260 259 258 257 256 255 255 254 253 252 251 250 249 249 247 246 246 246 246 246 246 246 246 246 247 248 249 249 250 250 251
Height
5844 5845 5845 5846 5846 5847 5847 5848 5849 5849 5850 5851 5851 5852 5853 5853 5853 5854 5854 5854 5855 5855 5855 5856 5856 5857 5857 5857 5858 5858 5858 5858 5858 5858 5858 5858 5858 5858 5858 5858 5858 5858 5858
5841 5842 5842 5843 5844 5845 5845 5846 5847 5847 5848 5849 5849 5850 5851 5851 5852 5852 5853 5853 5854 5854 5854 5855 5855 5856 5856 5856 5857 5857 5857 5857 5857 5857 5857 5857 5858 5858 5858 5858 5858 5858 5858
5838 5839 5839 5840 5841 5842 5843 5844 5845 5845 5846 5847 5847 5848 5849 5850 5850 5850 5851 5852 5852 5853 5853 5853 5854 5855 5855 5855 5856 5856 5856 5856 5857 5857 5857 5857 5857 5857 5858 5858 5858 5858 5858
5834 5835 5836 5837 5838 5839 5840 5841 5842 5843 5843 5844 5845 5845 5846 5847 5848 5848 5849 5850 5850 5851 5851 5852 5853 5853 5854 5854 5854 5855 5855 5855 5856 5856 5856 5856 5856 5857 5857 5857 5857 5857 5857
5830 5831 5832 5833 5835 5836 5837 5838 5839 5840 5840 5841 5842 5843 5844 5844 5845 5846 5847 5847 5848 5849 5849 5850 5851 5851 5852 5852 5853 5853 5854 5854 5854 5855 5855 5855 5856 5856 5856 5856 5856 5856 5856
5826 5827 5828 5829 5831 5832 5833 5834 5835 5836 5837 5838 5839 5839 5840 5841 5842 5843 5844 5845 5846 5846 5847 5848 5849 5849 5850 5850 5851 5851 5852 5853 5853 5853 5853 5854 5854 5855 5855 5855 5855 5855 5855
5821 5822 5824 5825 5826 5827 5828 5830 5831 5832 5833 5834 5834 5835 5836 5837 5839 5840 5840 5841 5843 5843 5844 5845 5846 5847 5847 5848 5849 5849 5850 5850 5851 5851 5852 5852 5852 5853 5853 5854 5854 5854 5854
5815 5817 5819 5820 5821 5823 5824 5825 5826 5827 5828 5829 5830 5831 5832 5833 5834 5835 5836 5838 5839 5840 5841 5841 5842 5843 5844 5845 5846 5846 5847 5848 5848 5849 5850 5850 5850 5851 5851 5852 5852 5852 5852
5810 5811 5813 5815 5816 5817 5818 5820 5821 5822 5823 5824 5825 5825 5826 5828 5829 5830 5832 5833 5835 5836 5837 5838 5839 5840 5841 5842 5842 5843 5844 5845 5845 5846 5847 5848 5848 5848 5849 5849 5850 5850 5850
5804 5805 5807 5809 5810 5811 5812 5814 5815 5816 5817 5818 5819 5820 5821 5822 5823 5825 5826 5828 5829 5831 5832 5833 5834 5835 5836 5838 5839 5839 5840 5841 5842 5843 5844 5845 5845 5846 5846 5847 5847 5848 5848
5797 5799 5800 5802 5803 5805 5806 5807 5808 5810 5811 5812 5813 5814 5815 5816 5817 5819 5820 5822 5824 5825 5827 5828 5829 5830 5832 5833 5834 5835 5836 5838 5838 5839 5840 5841 5842 5843 5843 5844 5844 5845 5845
5791 5792 5793 5795 5796 5798 5799 5800 5801 5803 5804 5805 5806 5807 5808 5809 5811 5813 5814 5816 5817 5819 5821 5822 5823 5825 5827 5828 5829 5831 5832 5833 5834 5835 5836 5837 5838 5839 5840 5840 5841 5841 5842
5783 5784 5786 5787 5789 5790 5791 5793 5794 5795 5796 5797 5798 5799 5801 5802 5804 5806 5808 5809 5811 5812 5814 5816 5817 5819 5821 5822 5824 5825 5826 5828 5829 5831 5832 5833 5834 5835 5835 5836 5837 5837 5838
5774 5776 5778 5779 5781 5782 5783 5784 5785 5786 5788 5789 5790 5792 5793 5795 5797 5798 5800 5802 5804 5805 5807 5809 5810 5812 5814 5816 5817 5819 5821 5822 5824 5825 5826 5828 5829 5830 5831 5832 5832 5833 5834
5766 5767 5769 5770 5771 5773 5774 5775 5777 5778 5779 5780 5781 5783 5785 5787 5789 5790 5792 5794 5796 5798 5799 5801 5803 5805 5807 5809 5811 5812 5814 5816 5817 5819 5821 5822 5823 5824 5825 5826 5827 5828 5829
5756 5758 5759 5761 5762 5763 5765 5766 5767 5768 5769 5770 5772 5774 5775 5778 5780 5782 5784 5785 5787 5789 5791 5793 5795 5797 5799 5801 5803 5805 5807 5809 5810 5812 5814 5815 5817 5818 5819 5821 5822 5822 5823
5746 5747 5749 5750 5752 5753 5754 5755 5756 5758 5759 5760 5762 5764 5766 5768 5770 5772 5774 5776 5778 5780 5782 5784 5786 5788 5790 5792 5794 5797 5799 5801 5803 5805 5806 5808 5810 5811 5813 5814 5815 5816 5817
5735 5736 5738 5739 5741 5742 5743 5744 5745 5747 5748 5749 5751 5753 5755 5757 5759 5762 5764 5766 5768 5770 5772 5774 5776 5779 5781 5783 5785 5788 5790 5792 5794 5796 5798 5800 5802 5804 5805 5807 5808 5809 5810
5723 5725 5726 5728 5729 5730 5732 5732 5734 5735 5736 5738 5739 5741 5743 5745 5748 5750 5753 5755 5757 5759 5761 5763 5766 5768 5770 5772 5775 5777 5780 5782 5785 5787 5789 5792 5794 5795 5797 5799 5800 5802 5803
5712 5713 5715 5716 5717 5718 5720 5721 5722 5723 5725 5726 5727 5729 5731 5733 5735 5738 5740 5742 5745 5747 5750 5752 5754 5756 5759 5761 5763 5766 5769 5772 5774 5777 5779 5782 5784 5786 5788 5790 5792 5793 5795
5700 5701 5702 5703 5704 5706 5707 5709 5710 5711 5712 5713 5714 5716 5717 5719 5722 5724 5727 5729 5731 5734 5737 5739 5741 5744 5746 5749 5751 5754 5757 5760 5763 5766 5769 5772 5774 5776 5778 5780 5782 5784 5786
5688 5689 5690 5691 5692 5693 5695 5696 5697 5698 5699 5700 5701 5702 5703 5705 5707 5709 5712 5715 5717 5720 5722 5725 5727 5730 5733 5735 5738 5741 5744 5748 5751 5754 5757 5760 5763 5765 5768 5770 5772 5774 5776
5676 5677 5678 5679 5680 5681 5682 5683 5684 5685 5685 5686 5687 5688 5689 5691 5692 5694 5697 5699 5702 5705 5708 5710 5713 5716 5719 5721 5724 5727 5731 5735 5739 5742 5745 5748 5751 5754 5757 5759 5762 5764 5766
5665 5665 5666 5667 5667 5668 5669 5670 5670 5671 5672 5673 5673 5674 5675 5676 5677 5679 5681 5683 5686 5689 5692 5695 5697 5700 5704 5707 5710 5713 5717 5720 5724 5729 5733 5736 5739 5742 5744 5747 5750 5753 5755
5653 5653 5654 5654 5655 5655 5656 5656 5657 5657 5658 5658 5658 5659 5660 5661 5662 5663 5665 5668 5670 5673 5676 5679 5682 5684 5688 5692 5695 5699 5703 5706 5709 5714 5719 5722 5726 5729 5732 5735 5738 5741 5744
5640 5641 5641 5642 5642 5642 5643 5643 5643 5643 5643 5644 5644 5644 5645 5646 5647 5648 5650 5652 5655 5657 5660 5663 5666 5669 5673 5676 5680 5684 5688 5692 5696 5700 5704 5708 5712 5716 5719 5722 5725 5728 5731